Change the Weather History Date:

Saturday, October 26, 2013

  Actual Average Record
Temperature  
Mean Temperature 69 °F 74 °F  
Max Temperature 80 °F 82 °F 89 °F (1939)
Min Temperature 58 °F 65 °F 45 °F (1903)
Degree Days  
Heating Degree Days 0 0  
Month to date heating degree days 0 0  
Since 1 July heating degree days 0 0  
Cooling Degree Days 4 9  
Month to date cooling degree days 344 308  
Year to date cooling degree days 3496 3324  
Growing Degree Days 18 (Base 50)    
Moisture  
Dew Point 54 °F    
Average Humidity 61    
Maximum Humidity 86    
Minimum Humidity 35    
Precipitation  
Precipitation 0.00 in 0.06 in 2.34 in (1986)
Month to date precipitation 0.82 2.01  
Year to date precipitation 50.71 42.03  
Sea Level Pressure  
Sea Level Pressure 30.17 in    
Wind  
Wind Speed 7 mph (NNE)    
Max Wind Speed 14 mph    
Max Gust Speed 20 mph    
Visibility 10 miles    
Events      
T = Trace of Precipitation, MM = Missing Value Source: NWS Daily Summary

Daily Weather History Graph

Daily Weather History Graph

Search for Another Location

Airport or City:

Trip Planner

Search our weather history database for the weather conditions in past years. The results will help you decide how hot, cold, wet, or windy it might be!

Date:

Astronomy

Oct. 26, 2013 Rise Set
Actual Time 7:37 AM EDT 6:50 PM EDT
Civil Twilight 7:13 AM EDT 7:14 PM EDT
Nautical Twilight 6:45 AM EDT 7:41 PM EDT
Astronomical Twilight 6:18 AM EDT 8:09 PM EDT
Moon 12:16 AM EDT (10/26) 1:48 PM EDT (10/26)
Length of Visible Light 12h 00m
Length of Day
11h 12m
Waning Gibbous, 53% of the Moon is Illuminated
Oct 26
Waning Gibbous
Oct 26
Last Quarter
Nov 3
New
Nov 10
First Quarter
Nov 17
Full

Hourly Weather History & Observations

Time (EDT) Temp. Dew Point Humidity Pressure Visibility Wind Dir Wind Speed Gust Speed Precip Events Conditions
12:53 AM 64.9 °F 55.9 °F 73% 30.22 in 10.0 mi NE 4.6 mph - N/A   Clear
1:53 AM 64.0 °F 55.0 °F 73% 30.20 in 10.0 mi NE 9.2 mph - N/A   Clear
2:53 AM 64.0 °F 54.0 °F 70% 30.19 in 10.0 mi NE 6.9 mph - N/A   Clear
3:53 AM 63.0 °F 54.0 °F 72% 30.17 in 10.0 mi NE 4.6 mph - N/A   Clear
4:53 AM 61.0 °F 54.0 °F 78% 30.17 in 10.0 mi NE 5.8 mph - N/A   Clear
5:53 AM 60.1 °F 54.0 °F 80% 30.18 in 10.0 mi NNE 5.8 mph - N/A   Clear
6:53 AM 59.0 °F 54.0 °F 83% 30.19 in 10.0 mi NNE 5.8 mph - N/A   Partly Cloudy
7:53 AM 57.9 °F 53.1 °F 84% 30.20 in 10.0 mi NNE 5.8 mph - N/A   Scattered Clouds
8:53 AM 61.0 °F 54.0 °F 78% 30.22 in 10.0 mi NNE 6.9 mph - N/A   Mostly Cloudy
9:53 AM 64.9 °F 53.1 °F 65% 30.23 in 10.0 mi NE 5.8 mph - N/A   Mostly Cloudy
10:53 AM 69.1 °F 53.1 °F 57% 30.23 in 10.0 mi NE 6.9 mph - N/A   Partly Cloudy
11:53 AM 73.0 °F 54.0 °F 51% 30.22 in 10.0 mi NNE 4.6 mph - N/A   Partly Cloudy
12:53 PM 75.0 °F 53.1 °F 46% 30.20 in 10.0 mi Calm Calm - N/A   Partly Cloudy
1:53 PM 75.9 °F 54.0 °F 46% 30.17 in 10.0 mi WSW 8.1 mph - N/A   Partly Cloudy
2:53 PM 75.9 °F 54.0 °F 46% 30.14 in 10.0 mi WSW 8.1 mph - N/A   Partly Cloudy
3:53 PM 75.9 °F 54.0 °F 46% 30.13 in 10.0 mi WSW 8.1 mph - N/A   Clear
4:53 PM 79.0 °F 48.0 °F 34% 30.12 in 10.0 mi Calm Calm - N/A   Clear
5:53 PM 75.0 °F 54.0 °F 48% 30.12 in 10.0 mi NNW 10.4 mph - N/A   Clear
6:53 PM 70.0 °F 54.0 °F 57% 30.12 in 10.0 mi NNW 8.1 mph - N/A   Clear
7:53 PM 68.0 °F 55.0 °F 63% 30.14 in 10.0 mi North 8.1 mph - N/A   Clear
8:53 PM 66.0 °F 55.0 °F 68% 30.15 in 10.0 mi North 8.1 mph - N/A   Clear
9:53 PM 64.9 °F 55.0 °F 70% 30.17 in 10.0 mi North 6.9 mph - N/A   Clear
10:53 PM 64.0 °F 55.0 °F 73% 30.16 in 10.0 mi North 8.1 mph - N/A   Clear
11:53 PM 64.0 °F 53.1 °F 67% 30.15 in 10.0 mi North 6.9 mph - N/A   Clear